Showing default

THEMIS A, 30580

Orbit data source: Space-Track

THEMIS A, 30580 is a payload satellite owned by GSFC (US) in HEO that was launched on Sat, 17 Feb 2007 UTC via a DELTA 7925-10C launch vehicle from the Air Force Eastern Test Range (AFETR). Payload-class satellites include a variety of spacecraft equipped with specific instruments for various scientific and technological missions. These include communications satellites like Starlink; space stations such as the ISS; scientific satellites like the Hubble; Earth observation satellites from companies like Planet Labs, Umbra, and HawkEye 360; GPS; miniature CubeSats for education and research; and military/defense satellites.

Loading next visibility...
Identifier
30580, 2007-004A
Orbit
HEO
Country
Flag of USUS
Related business
Manufacturer
Swales
Mission
Operational Civil Science
Bus & Motor
ATK-A100, Unknown motor
Mass
125 kg wet, 76 kg dry
Launch date (UTC)
2007-02-17 (19 years ago)
Launch vehicle
DELTA 7925-10C
Launch site
Air Force Eastern Test Range (AFETR)
Object type
Payload
Rocket body
Debris
Shape & HBR
Box + 6 Rod, 24.5 m
Radar Cross Section
0.720 m², Medium (>0.1 m² and < 1m²)

Expand to show TLE details & history
Last TLE update: 2 days ago

TLE from 2 days ago
0 THEMIS A
1 30580U 07004A   26167.34740844 -.00000372  00000-0  92577-2 0  9998
2 30580   8.3672 109.8179 8367277 199.0003  78.9380  0.87843875 41270
Epoch: 2026-06-16T08:20Z
TLE epoch observation values (Epoch: 2026-06-16T08:20:16.089Z)
Latitude
-0.00011°
Longitude
79.73848°
Altitude
59,389.49 km
Speed
1.862 km/s
True Right ascension
07h 17m 42s
True Declination
0° 00' 00"
Sunlit
Object was in daylight at epoch
Visualization orbit readout
Latitude
Unknown
Longitude
Unknown
Altitude
Unknown
Speed
Unknown
Apparent Right ascension
Unknown
Apparent Declination
Unknown
Sunlit
N/A
Visualization observer readout
Local Sidereal Time
12:26:57
Azimuth
Unknown
Elevation
Unknown
Doppler factor
Unknown
Orbital elements
Apogee altitude
78,219.662 km
Perigee altitude
1,142.018 km
Semi-major axis
46,058.977 km
Eccentricity
0.83673
Inclination
8.3672°
RAAN
109.8179°
Arg. of periapsis
199.0003°
True anomaly
160.58983°
Mean anomaly
78.938°
Eccentric anomaly
120.3211°
Mean motion
0.21957 °/min
Orbital period
1,639.57 mins
BSTAR
0.0092577
Loading maneuver chart data...
Computing Atmospheric mass density...
Loading historical data...
Loading historical data...
Loading historical data...
Loading historical data...
Loading historical data...
Loading historical data...
Loading historical data...

Documentation

Showing up to 5 results
|